Tracking 30107 objects as of 18-Jan-2025
HD Live streaming from Space Station
objects crossing your sky now

SL-14 DEB

Track SL-14 DEB now!
10-day predictions


NORAD ID: 26023
Int'l Code: 1991-068AJ
Perigee: 1,461.6 km
Apogee: 1,471.4 km
Inclination: 82.6 °
Period: 115.1 minutes
Semi major axis: 7837 km
RCS: 0.0267 m2 (small)
Launch date: September 28, 1991
Source: Commonwealth of Independent States (former USSR) (CIS)
Launch site: PLESETSK MISSILE AND SPACE COMPLEX (PKMTR)

Note: This is SATELLITE DEBRIS
Your satellite tracking list
Your tracking list is empty




NASA's NSSDC Master Catalog

Two Line Element Set (TLE):
1 26023U 91068AJ  25017.25544473  .00000563  00000-0  35785-2 0  9990
2 26023  82.5778  96.6532 0006253 359.0096  58.4942 12.51224842522597
Source of the keplerian elements: AFSPC